Location: ??????
(55.6361°N, 38.0803°E)
Time: 03:49:45
(UTC+00:00)

ALOS - Pass Details

Date: 30 March 2020
Orbit: 683 x 686 km, 97.8° (Epoch: 31 May)

Event Time Altitude Azimuth Distance (km) Brightness Sun altitude
Rises 01:58:10 0° 20° (NNE) 3,069 6.3 -9.7°
Reaches altitude 10° 02:00:37 10° 30° (NNE) 2,148 5.7 -9.4°
Maximum altitude 02:04:52 33° 94° (E) 1,155 4.2 -8.8°
Drops below altitude 10° 02:09:05 10° 159° (SSE) 2,132 4.8 -8.2°
Sets 02:11:31 0° 169° (S) 3,043 5.5 -7.9°
